STARLINK-34420, 64483

Orbit data source: Space-Track

STARLINK-34420, 64483 is a payload satellite owned by SpaceX/Seattle (US) in LEO that was launched on Mon, 23 Jun 2025 UTC via an FALCON 9 launch vehicle from the Air Force Eastern Test Range (AFETR). Payload-class satellites include a variety of spacecraft equipped with specific instruments for various scientific and technological missions. These include communications satellites like Starlink; space stations such as the ISS; scientific satellites like the Hubble; Earth observation satellites from companies like Planet Labs, Umbra, and HawkEye 360; GPS; miniature CubeSats for education and research; and military/defense satellites.

Loading next visibility...
Identifier
64483, 2025-133M
Orbit
LEO
Country
Flag of USUS
Related business
Manufacturer
SpaceX/Seattle
Mission
Operational Commercial Communications
Bus & Motor
STARLINK V2MO, Unknown motor
Mass
575 kg wet, ~530 kg dry
Launch date (UTC)
2025-06-23 (1 year ago)
Launch vehicle
FALCON 9
Launch site
Air Force Eastern Test Range (AFETR)
Object type
Payload
Rocket body
Debris
Shape & HBR
Box + 2 Pan, 17.7 m
Radar Cross Section
36.964 m², Large (>1 m²)

Expand to show TLE details & history
Last TLE update: 1 day ago

TLE from 1 day ago
0 STARLINK-34420
1 64483U 25133M   26170.90424849  .00026300  00000-0  89662-3 0  9990
2 64483  53.1602   1.6142 0001053  99.8767 260.2352 15.30212516 56842
Epoch: 2026-06-19T21:42Z
TLE epoch observation values (Epoch: 2026-06-19T21:42:07.069Z)
Latitude
-0.00008°
Longitude
127.95815°
Altitude
476.2 km
Speed
7.629 km/s
True Right ascension
00h 06m 27s
True Declination
0° 00' 00"
Sunlit
Object was in daylight at epoch
Visualization orbit readout
Latitude
Unknown
Longitude
Unknown
Altitude
Unknown
Speed
Unknown
Apparent Right ascension
Unknown
Apparent Declination
Unknown
Sunlit
N/A
Visualization observer readout
Local Sidereal Time
10:17:13
Azimuth
Unknown
Elevation
Unknown
Doppler factor
Unknown
Orbital elements
Apogee altitude
476.156 km
Perigee altitude
474.712 km
Semi-major axis
6,853.571 km
Eccentricity
0.00011
Inclination
53.1602°
RAAN
1.6142°
Arg. of periapsis
99.8767°
True anomaly
260.22331°
Mean anomaly
260.2352°
Eccentric anomaly
260.22925°
Mean motion
3.82532 °/min
Orbital period
94.11 mins
BSTAR
0.00089662
Loading maneuver chart data...
Computing Atmospheric mass density...
Loading historical data...
Loading historical data...
Loading historical data...
Loading historical data...
Loading historical data...
Loading historical data...
Loading historical data...

Documentation

Showing up to 5 results
|